This is the latest recevied weather packets stored in our database for station/object DL1SEW-6. If no packets are shown the sender has not sent any weather packets the latest 10 day(s).
| Time | Temp. | Humidity | Pressure | Rain* | Wind** | Luminosity | Snow |
|---|---|---|---|---|---|---|---|
| 1778135105 | 8.33° C | 91% | 1011.9 hPa | 0.51 mm | - | 121 W/m² | - |
| 1778134204 | 8.33° C | 91% | 1011.9 hPa | 0.51 mm | - | 72 W/m² | - |
| 1778133305 | 8.33° C | 91% | 1011.8 hPa | 0.25 mm | - | 83 W/m² | - |
| 1778132404 | 8.33° C | 92% | 1011.7 hPa | 0.51 mm | - | 92 W/m² | - |
| 1778131506 | 8.33° C | 92% | 1011.5 hPa | 0.51 mm | - | 63 W/m² | - |
| 1778130604 | 7.78° C | 92% | 1011 hPa | 0.51 mm | - | 34 W/m² | - |
| 1778129703 | 7.78° C | 91% | 1010.9 hPa | 0.76 mm | - | 22 W/m² | - |
| 1778128803 | 7.78° C | 91% | 1010.7 hPa | 0.76 mm | - | 14 W/m² | - |
| 1778127903 | 7.78° C | 91% | 1010.5 hPa | 1.02 mm | - | 2 W/m² | - |
| 1778127003 | 7.78° C | 90% | 1010.3 hPa | 1.02 mm | - | 0 W/m² | - |
| 1778126105 | 7.78° C | 90% | 1010.2 hPa | 1.02 mm | - | 0 W/m² | - |
| 1778125205 | 7.78° C | 90% | 1010.1 hPa | 1.02 mm | - | 0 W/m² | - |
| 1778124302 | 7.78° C | 89% | 1009.9 hPa | 0.76 mm | - | 0 W/m² | - |
| 1778123403 | 7.78° C | 89% | 1009.9 hPa | 0.76 mm | - | 0 W/m² | - |
| 1778122502 | 8.33° C | 88% | 1010 hPa | 0.51 mm | - | 0 W/m² | - |
| 1778121602 | 8.33° C | 88% | 1009.9 hPa | 0.51 mm | - | 0 W/m² | - |
| 1778120703 | 8.33° C | 87% | 1009.8 hPa | 0.25 mm | - | 0 W/m² | - |
| 1778119803 | 8.33° C | 86% | 1009.7 hPa | 0 mm | - | 0 W/m² | - |
| 1778118902 | 8.33° C | 87% | 1009.6 hPa | 0 mm | - | 0 W/m² | - |
| 1778118001 | 7.78° C | 87% | 1009.3 hPa | 0 mm | - | 0 W/m² | - |
| 1778117101 | 7.78° C | 87% | 1009.3 hPa | 0 mm | - | 0 W/m² | - |
| 1778116201 | 7.78° C | 88% | 1009.1 hPa | 0 mm | - | 0 W/m² | - |
| 1778115301 | 7.78° C | 88% | 1009.1 hPa | 0 mm | - | 0 W/m² | - |
| 1778114401 | 7.78° C | 88% | 1009 hPa | 0 mm | - | 0 W/m² | - |
| 1778113502 | 7.78° C | 88% | 1009.1 hPa | 0 mm | - | 0 W/m² | - |
* Rain latest hour (hover to see other rain measurements)
** Current wind speed in m/s (hover to see current wind gust speed)